Location: Amsterdam
(30.7274°N, 84.4357°W)
Time: 16:50:12
(UTC+00:00)

Injun/Solrad 3 - Pass Details

Date: 25 February 2026
Orbit: 871 x 985 km, 66.8° (Epoch: 11 March)

Event Time Altitude Azimuth Distance (km) Brightness Sun altitude
Rises 02:22:39 0° 309° (NW) 3,629 11.8 -37.1°
Reaches altitude 10° 02:26:47 10° 283° (WNW) 2,701 11.0 -37.9°
Maximum altitude 02:29:25 13° 257° (WSW) 2,501 10.7 -38.5°
Drops below altitude 10° 02:32:06 10° 232° (SW) 2,717 10.7 -39.1°
Sets 02:36:19 0° 206° (SSW) 3,670 11.1 -39.9°
